TimeCST,TemperatureF,Dew PointF,Humidity,Sea Level PressureIn,VisibilityMPH,Wind Direction,Wind SpeedMPH,Gust SpeedMPH,PrecipitationIn,Events,Conditions,WindDirDegrees,DateUTC
12:15 AM,27.5,26.2,95,30.02,10.0,NNW,20.7,26.5,N/A,,Overcast,340,2013-02-08 06:15:00
12:55 AM,23.7,21.7,92,30.04,10.0,North,12.7,-,N/A,,Scattered Clouds,350,2013-02-08 06:55:00
1:15 AM,24.8,23.0,93,30.04,10.0,NNW,19.6,23.0,N/A,,Mostly Cloudy,340,2013-02-08 07:15:00
1:35 AM,23.5,21.2,91,30.06,10.0,North,18.4,-,N/A,,Mostly Cloudy,350,2013-02-08 07:35:00
1:55 AM,23.2,21.0,91,30.07,10.0,North,20.7,-,N/A,,Mostly Cloudy,350,2013-02-08 07:55:00
2:15 AM,22.5,20.3,91,30.09,10.0,North,19.6,-,N/A,,Mostly Cloudy,350,2013-02-08 08:15:00
2:35 AM,22.1,19.8,91,30.09,10.0,North,19.6,-,N/A,,Scattered Clouds,350,2013-02-08 08:35:00
2:55 AM,21.2,19.0,91,30.09,10.0,North,18.4,-,N/A,,Clear,350,2013-02-08 08:55:00
3:15 AM,21.0,18.7,91,30.11,10.0,North,18.4,-,N/A,,Clear,350,2013-02-08 09:15:00
3:35 AM,20.7,18.3,91,30.12,10.0,North,17.3,-,N/A,,Clear,350,2013-02-08 09:35:00
3:55 AM,20.5,18.1,91,30.12,10.0,North,16.1,-,N/A,,Clear,350,2013-02-08 09:55:00
4:15 AM,20.3,18.0,91,30.13,10.0,North,16.1,-,N/A,,Clear,360,2013-02-08 10:15:00
4:35 AM,20.3,17.8,90,30.14,10.0,North,16.1,-,N/A,,Clear,360,2013-02-08 10:35:00
4:55 AM,20.3,18.0,91,30.16,10.0,North,13.8,-,N/A,,Scattered Clouds,350,2013-02-08 10:55:00
5:15 AM,21.7,19.4,91,30.18,10.0,North,12.7,-,N/A,,Overcast,350,2013-02-08 11:15:00
5:35 AM,22.6,20.3,91,30.19,10.0,North,15.0,-,N/A,,Overcast,350,2013-02-08 11:35:00
5:55 AM,23.0,20.7,91,30.19,10.0,North,16.1,-,N/A,,Overcast,360,2013-02-08 11:55:00
6:15 AM,23.0,20.8,91,30.20,10.0,North,16.1,-,N/A,,Overcast,350,2013-02-08 12:15:00
6:35 AM,23.0,20.7,91,30.22,10.0,North,15.0,-,N/A,,Overcast,350,2013-02-08 12:35:00
6:55 AM,23.2,20.7,90,30.23,10.0,North,16.1,-,N/A,,Overcast,350,2013-02-08 12:55:00
7:15 AM,23.4,20.5,89,30.23,10.0,North,15.0,-,N/A,,Overcast,360,2013-02-08 13:15:00
7:35 AM,23.4,20.5,89,30.24,10.0,North,12.7,-,N/A,,Overcast,360,2013-02-08 13:35:00
7:55 AM,23.5,20.8,89,30.25,10.0,North,13.8,-,N/A,,Overcast,360,2013-02-08 13:55:00
8:15 AM,23.7,21.0,89,30.27,10.0,North,10.4,-,N/A,,Overcast,360,2013-02-08 14:15:00
8:35 AM,23.9,20.8,88,30.28,10.0,North,11.5,-,N/A,,Overcast,360,2013-02-08 14:35:00
8:55 AM,23.9,21.0,89,30.29,10.0,North,13.8,-,N/A,,Overcast,360,2013-02-08 14:55:00
9:15 AM,23.9,20.3,86,30.29,10.0,North,13.8,-,N/A,,Overcast,360,2013-02-08 15:15:00
9:35 AM,24.3,20.3,85,30.31,10.0,North,10.4,-,N/A,,Overcast,360,2013-02-08 15:35:00
9:55 AM,24.3,20.3,85,30.32,10.0,North,10.4,-,N/A,,Overcast,360,2013-02-08 15:55:00
10:15 AM,24.3,20.3,85,30.33,10.0,NNW,11.5,-,N/A,,Overcast,340,2013-02-08 16:15:00
10:35 AM,24.4,20.3,84,30.32,10.0,North,11.5,-,N/A,,Overcast,360,2013-02-08 16:35:00
10:55 AM,24.4,20.1,84,30.33,10.0,North,11.5,-,N/A,,Overcast,360,2013-02-08 16:55:00
11:15 AM,24.4,20.5,85,30.32,10.0,North,10.4,-,N/A,,Overcast,10,2013-02-08 17:15:00
11:35 AM,24.6,20.3,84,30.32,10.0,North,11.5,-,N/A,,Overcast,360,2013-02-08 17:35:00
11:55 AM,24.3,20.1,84,30.33,10.0,North,9.2,-,N/A,,Overcast,360,2013-02-08 17:55:00
12:15 PM,24.6,20.3,84,30.33,10.0,North,9.2,-,N/A,,Overcast,360,2013-02-08 18:15:00
12:35 PM,24.8,20.7,84,30.33,10.0,North,8.1,-,N/A,,Overcast,360,2013-02-08 18:35:00
12:55 PM,24.8,20.8,85,30.33,10.0,North,8.1,-,N/A,,Overcast,360,2013-02-08 18:55:00
1:15 PM,24.8,20.8,85,30.32,10.0,North,9.2,-,N/A,,Overcast,360,2013-02-08 19:15:00
1:35 PM,25.0,21.0,85,30.33,10.0,North,10.4,-,N/A,,Overcast,360,2013-02-08 19:35:00
1:55 PM,24.4,20.5,85,30.33,10.0,North,10.4,-,N/A,,Overcast,350,2013-02-08 19:55:00
2:15 PM,24.6,21.0,86,30.33,10.0,North,9.2,-,N/A,,Overcast,10,2013-02-08 20:15:00
2:35 PM,24.3,20.7,86,30.33,10.0,NNE,6.9,-,N/A,,Overcast,20,2013-02-08 20:35:00
2:55 PM,24.3,20.5,85,30.34,10.0,North,9.2,-,N/A,,Overcast,10,2013-02-08 20:55:00
3:15 PM,24.4,21.0,87,30.34,10.0,North,3.5,-,N/A,,Overcast,360,2013-02-08 21:15:00
3:35 PM,23.9,20.3,86,30.35,10.0,North,6.9,17.3,N/A,,Overcast,350,2013-02-08 21:35:00
3:55 PM,23.7,20.3,87,30.34,10.0,North,6.9,-,N/A,,Overcast,350,2013-02-08 21:55:00
4:15 PM,22.8,19.4,87,30.35,10.0,North,5.8,-,N/A,,Overcast,360,2013-02-08 22:15:00
4:35 PM,22.6,19.4,87,30.35,10.0,NNW,3.5,-,N/A,,Overcast,340,2013-02-08 22:35:00
4:55 PM,22.5,19.4,88,30.36,10.0,North,4.6,-,N/A,,Overcast,350,2013-02-08 22:55:00
5:15 PM,21.7,18.9,89,30.36,10.0,NNE,3.5,-,N/A,,Overcast,20,2013-02-08 23:15:00
5:55 PM,21.2,18.9,91,30.37,10.0,Calm,Calm,-,N/A,,Clear,0,2013-02-08 23:55:00
6:15 PM,19.4,17.2,91,30.36,10.0,ENE,3.5,-,N/A,,Clear,70,2013-02-09 00:15:00
6:35 PM,19.8,17.8,92,30.36,10.0,ENE,5.8,-,N/A,,Scattered Clouds,60,2013-02-09 00:35:00
6:55 PM,21.9,19.2,89,30.38,10.0,ENE,3.5,-,N/A,,Mostly Cloudy,70,2013-02-09 00:55:00
7:15 PM,22.1,19.4,89,30.38,10.0,Calm,Calm,-,N/A,,Overcast,0,2013-02-09 01:15:00
7:35 PM,22.1,19.2,89,30.37,10.0,NE,3.5,-,N/A,,Overcast,40,2013-02-09 01:35:00
7:55 PM,21.9,19.4,90,30.38,10.0,ENE,4.6,-,N/A,,Overcast,70,2013-02-09 01:55:00
8:15 PM,21.7,19.4,91,30.37,10.0,East,5.8,-,N/A,,Overcast,80,2013-02-09 02:15:00
8:35 PM,21.2,19.4,93,30.38,10.0,ENE,4.6,-,N/A,,Overcast,70,2013-02-09 02:35:00
8:55 PM,21.0,19.2,93,30.38,10.0,ENE,5.8,-,N/A,,Overcast,70,2013-02-09 02:55:00
9:15 PM,20.3,18.9,94,30.38,10.0,East,5.8,-,N/A,,Overcast,100,2013-02-09 03:15:00
9:35 PM,19.9,18.5,94,30.38,7.0,ESE,8.1,-,N/A,,Overcast,110,2013-02-09 03:35:00
9:55 PM,20.1,19.0,96,30.38,7.0,East,4.6,-,N/A,,Overcast,100,2013-02-09 03:55:00
10:15 PM,20.3,19.4,96,30.38,7.0,Calm,Calm,-,N/A,,Overcast,0,2013-02-09 04:15:00
10:35 PM,20.8,19.8,96,30.38,7.0,Calm,Calm,-,N/A,,Overcast,0,2013-02-09 04:35:00
10:55 PM,21.0,20.1,96,30.38,7.0,Calm,Calm,-,N/A,,Overcast,0,2013-02-09 04:55:00
11:15 PM,21.2,20.3,96,30.38,7.0,Calm,Calm,-,N/A,,Overcast,0,2013-02-09 05:15:00
11:35 PM,21.0,20.1,96,30.38,7.0,Calm,Calm,-,N/A,,Overcast,0,2013-02-09 05:35:00
11:55 PM,21.2,20.3,96,30.37,7.0,Calm,Calm,-,N/A,,Overcast,0,2013-02-09 05:55:00